Weather History for KROC - November, 2014

Change the Weather History Date:

Wednesday, November 12, 2014

  Actual Average Record
Temperature  
Mean Temperature 47 °F 42 °F  
Max Temperature 58 °F 50 °F 72 °F (1982)
Min Temperature 35 °F 34 °F 21 °F (1983)
Degree Days  
Heating Degree Days 18 23  
Month to date heating degree days 233 255  
Since 1 July heating degree days 730 888  
Cooling Degree Days 0 0  
Month to date cooling degree days 0 0  
Year to date cooling degree days 542 539  
Moisture  
Dew Point 31 °F    
Average Humidity 62    
Maximum Humidity 80    
Minimum Humidity 44    
Precipitation  
Precipitation T in 0.09 in 1.46 in (1879)
Month to date precipitation 1.43 1.13  
Year to date precipitation 29.68 29.83  
Snow  
Snow 0.00 in 0.20 in 5.00 in (1977)
Month to date snowfall T 1.7  
Since 1 July snowfall T 1.8  
Since 1 September snowfall T 1.8  
Snow Depth 0.00 in    
Sea Level Pressure  
Sea Level Pressure 30.00 in    
Wind  
Wind Speed 15 mph (West)    
Max Wind Speed 26 mph    
Max Gust Speed 33 mph    
Visibility 10 miles    
Events Rain    
T = Trace of Precipitation, MM = Missing Value Source: NWS Daily Summary

Daily Weather History Graph

Daily Weather History Graph

Search for Another Location

Airport or City:

Trip Planner

Search our weather history database for the weather conditions in past years. The results will help you decide how hot, cold, wet, or windy it might be!

Date:

Astronomy

Nov. 12, 2014 Rise Set
Actual Time 6:59 AM EST 4:49 PM EST
Civil Twilight 6:29 AM EST 5:20 PM EST
Nautical Twilight 5:54 AM EST 5:54 PM EST
Astronomical Twilight 5:21 AM EST 6:27 PM EST
Moon 10:08 PM EST (11/12) 11:43 AM EST (11/12)
Length of Visible Light 10h 50m
Length of Day
9h 50m
Waning Gibbous, 68% of the Moon is Illuminated
Nov 12
Waning Gibbous
Nov 14
Last Quarter
Nov 22
New
Nov 29
First Quarter
Dec 6
Full

Hourly Weather History & Observations

Time (EST) Temp. Windchill Dew Point Humidity Pressure Visibility Wind Dir Wind Speed Gust Speed Precip Events Conditions
12:54 AM 55.0 °F - 39.0 °F 55% 29.76 in 10.0 mi WSW 6.9 mph - N/A   Overcast
1:54 AM 57.0 °F - 51.1 °F 81% 29.75 in 10.0 mi West 10.4 mph - N/A   Mostly Cloudy
2:22 AM 57.0 °F - 50.0 °F 77% 29.76 in 10.0 mi West 16.1 mph 24.2 mph N/A   Overcast
2:54 AM 55.0 °F - 46.9 °F 74% 29.78 in 10.0 mi West 18.4 mph 29.9 mph N/A   Overcast
3:54 AM 52.0 °F - 45.0 °F 77% 29.81 in 10.0 mi West 21.9 mph 32.2 mph N/A   Overcast
4:13 AM 52.0 °F - 44.1 °F 74% 29.81 in 10.0 mi West 13.8 mph - N/A   Overcast
4:29 AM 48.9 °F - 44.1 °F 83% 29.83 in 10.0 mi West 15.0 mph 32.2 mph 0.00 in Rain Light Rain
4:54 AM 46.9 °F - 42.1 °F 83% 29.86 in 10.0 mi West 16.1 mph 26.5 mph 0.00 in   Light Drizzle
5:54 AM 44.1 °F 36.2 °F 37.0 °F 76% 29.91 in 10.0 mi West 18.4 mph 24.2 mph 0.00 in   Overcast
6:54 AM 44.1 °F 37.7 °F 35.1 °F 71% 29.95 in 10.0 mi West 12.7 mph - N/A   Overcast
7:22 AM 44.1 °F 37.7 °F 34.0 °F 68% 29.95 in 10.0 mi West 12.7 mph 20.7 mph N/A   Overcast
7:54 AM 44.1 °F 37.7 °F 34.0 °F 68% 29.99 in 10.0 mi West 12.7 mph 21.9 mph N/A   Overcast
8:54 AM 42.1 °F 33.1 °F 28.9 °F 60% 30.02 in 10.0 mi West 20.7 mph 31.1 mph N/A   Overcast
9:54 AM 41.0 °F 31.9 °F 27.0 °F 57% 30.05 in 10.0 mi West 19.6 mph 32.2 mph N/A   Overcast
10:54 AM 41.0 °F 31.4 °F 26.6 °F 57% 30.06 in 10.0 mi West 21.9 mph 29.9 mph N/A   Overcast
11:54 AM 41.0 °F 31.9 °F 27.0 °F 57% 30.06 in 10.0 mi West 19.6 mph 28.8 mph N/A   Overcast
12:54 PM 42.1 °F 33.6 °F 26.1 °F 53% 30.07 in 10.0 mi West 18.4 mph 28.8 mph N/A   Overcast
1:54 PM 41.0 °F 31.4 °F 25.0 °F 53% 30.09 in 10.0 mi West 21.9 mph 27.6 mph N/A   Mostly Cloudy
2:54 PM 39.9 °F 30.2 °F 25.0 °F 55% 30.11 in 10.0 mi West 20.7 mph 27.6 mph N/A   Overcast
3:54 PM 39.0 °F 29.9 °F 24.1 °F 55% 30.13 in 10.0 mi West 17.3 mph 25.3 mph N/A   Overcast
4:54 PM 37.9 °F 30.5 °F 23.0 °F 55% 30.14 in 10.0 mi West 11.5 mph - N/A   Overcast
5:54 PM 37.9 °F 30.9 °F 21.9 °F 53% 30.16 in 10.0 mi West 10.4 mph - N/A   Overcast
6:54 PM 37.0 °F 29.3 °F 21.0 °F 52% 30.17 in 10.0 mi West 11.5 mph - N/A   Overcast
7:54 PM 36.0 °F 32.1 °F 21.9 °F 57% 30.17 in 10.0 mi West 4.6 mph - N/A   Mostly Cloudy
8:54 PM 37.0 °F 29.3 °F 21.0 °F 52% 30.17 in 10.0 mi West 11.5 mph - N/A   Overcast
9:54 PM 36.0 °F 29.0 °F 21.0 °F 55% 30.18 in 10.0 mi West 9.2 mph - N/A   Overcast
10:54 PM 36.0 °F 28.5 °F 21.0 °F 55% 30.17 in 10.0 mi West 10.4 mph - N/A   Overcast
11:54 PM 35.1 °F 27.9 °F 21.0 °F 57% 30.15 in 10.0 mi WSW 9.2 mph - N/A   Overcast